Weather History for Middletown, PA

Change the Weather History Date:

Sunday, February 2, 2014

  Actual Average Record
Temperature  
Mean Temperature 34 °F 30 °F  
Max Temperature 42 °F 38 °F 59 °F (1988)
Min Temperature 26 °F 23 °F -1 °F (1961)
Degree Days  
Heating Degree Days 31 35  
Month to date heating degree days 61 70  
Since 1 July heating degree days 3349 3159  
Cooling Degree Days 0 0  
Month to date cooling degree days 0 0  
Year to date cooling degree days 0 0  
Moisture  
Dew Point 30 °F    
Average Humidity 79    
Maximum Humidity 92    
Minimum Humidity 65    
Precipitation  
Precipitation T in 0.08 in 1.03 in (1981)
Month to date precipitation T 0.17  
Year to date precipitation 2.44 3.05  
Snow  
Snow 0.00 in - - ()
Month to date snowfall 0.0  
Since 1 July snowfall 21.0  
Snow Depth 0.00 in    
Sea Level Pressure  
Sea Level Pressure 30.01 in    
Wind  
Wind Speed 3 mph (NW)    
Max Wind Speed 13 mph    
Max Gust Speed 15 mph    
Visibility 6 miles    
Events Fog , Rain    
T = Trace of Precipitation, MM = Missing Value Source: NWS Daily Summary

Daily Weather History Graph

Daily Weather History Graph

Search for Another Location

Airport:

Trip Planner

Search our weather history database for the weather conditions in past years. The results will help you decide how hot, cold, wet, or windy it might be!

Date:

Astronomy

Feb. 02, 2014 Rise Set
Actual Time 7:14 AM EST 5:27 PM EST
Civil Twilight 6:46 AM EST 5:55 PM EST
Nautical Twilight 6:13 AM EST 6:28 PM EST
Astronomical Twilight 5:42 AM EST 7:00 PM EST
Moon 8:40 AM EST (2/2) 9:09 PM EST (2/2)
Length of Visible Light 11h 09m
Length of Day
10h 12m
Waxing Crescent, 11% of the Moon is Illuminated
Feb 2
Waxing Crescent
Feb 6
First Quarter
Feb 14
Full
Feb 22
Last Quarter
Mar 1
New

Hourly Weather History & Observations

Time (EST) Temp. Windchill Dew Point Humidity Pressure Visibility Wind Dir Wind Speed Gust Speed Precip Events Conditions
12:56 AM 30.9 °F - 27.0 °F 85% 29.98 in 8.0 mi Calm Calm - N/A   Mostly Cloudy
1:56 AM 28.9 °F 23.9 °F 25.0 °F 85% 29.96 in 7.0 mi East 4.6 mph - N/A Fog Patches of Fog
2:56 AM 27.0 °F - 24.1 °F 89% 29.96 in 7.0 mi Calm Calm - N/A Fog Patches of Fog
3:56 AM 27.0 °F - 23.0 °F 85% 29.95 in 7.0 mi Calm Calm - N/A Fog Patches of Fog
4:56 AM 26.1 °F - 23.0 °F 88% 29.95 in 7.0 mi Calm Calm - N/A Fog Patches of Fog
5:56 AM 28.0 °F 24.2 °F 24.1 °F 85% 29.96 in 7.0 mi NW 3.5 mph - N/A Fog Patches of Fog
6:56 AM 30.0 °F - 27.0 °F 88% 29.96 in 5.0 mi Calm Calm - N/A Fog Patches of Fog
7:56 AM 32.0 °F - 28.0 °F 85% 29.99 in 4.0 mi Calm Calm - N/A Fog Patches of Fog
8:56 AM 33.1 °F - 28.9 °F 85% 29.99 in 4.0 mi Calm Calm - N/A   Mostly Cloudy
9:56 AM 35.1 °F - 30.0 °F 82% 30.02 in 4.0 mi Calm Calm - N/A   Haze
10:56 AM 36.0 °F - 30.9 °F 82% 30.02 in 6.0 mi Calm Calm - N/A   Haze
11:56 AM 39.0 °F 35.7 °F 30.9 °F 73% 30.00 in 6.0 mi NNW 4.6 mph - N/A   Haze
12:56 PM 39.9 °F - 30.9 °F 70% 29.98 in 7.0 mi Calm Calm - 0.00 in Rain Light Rain
1:56 PM 41.0 °F - 30.9 °F 67% 29.97 in 6.0 mi Calm Calm - 0.00 in Rain Light Rain
2:56 PM 39.0 °F 36.8 °F 32.0 °F 76% 29.96 in 6.0 mi WNW 3.5 mph - 0.00 in   Haze
3:56 PM 42.1 °F 38.4 °F 32.0 °F 67% 29.97 in 6.0 mi NNW 5.8 mph - N/A   Haze
4:56 PM 39.9 °F 36.7 °F 32.0 °F 73% 29.98 in 6.0 mi NW 4.6 mph - N/A   Haze
5:56 PM 39.0 °F 36.8 °F 32.0 °F 76% 30.01 in 7.0 mi WNW 3.5 mph - N/A   Overcast
6:56 PM 39.0 °F 31.8 °F 33.1 °F 79% 30.06 in 6.0 mi WNW 11.5 mph - 0.00 in   Haze
7:56 PM 41.0 °F 35.8 °F 34.0 °F 76% 30.07 in 6.0 mi NW 8.1 mph - N/A   Haze
8:56 PM 39.9 °F 35.1 °F 35.1 °F 83% 30.09 in 6.0 mi WNW 6.9 mph - N/A   Haze
9:29 PM 39.9 °F 35.8 °F 35.1 °F 83% 30.08 in 6.0 mi NW 5.8 mph - N/A   Haze
9:56 PM 41.0 °F 39.0 °F 35.1 °F 79% 30.10 in 6.0 mi NW 3.5 mph - N/A   Haze
10:56 PM 39.0 °F 34.8 °F 35.1 °F 86% 30.10 in 6.0 mi NW 5.8 mph - 0.00 in Rain Light Rain
11:56 PM 39.0 °F 36.8 °F 35.1 °F 86% 30.10 in 7.0 mi NNW 3.5 mph - 0.00 in Rain Light Rain